Probability
39 37 32 28 27 25 22 19 19 19 19 19 18 16 15 16 17 19 19 17 15 14 13 12 10 8 8 9 8 9 12 11 7 6 9 11 13 13 11 11 9 4 2
41 40 36 32 30 28 24 20 19 19 19 19 19 17 15 14 15 17 16 16 16 17 16 13 10 9 11 12 11 11 12 11 8 7 9 11 12 14 13 11 8 4 2
42 41 39 35 32 30 27 22 19 18 17 17 17 15 14 13 14 14 14 14 15 16 16 14 12 12 13 14 13 12 12 10 9 8 9 9 11 13 14 11 7 4 3
43 41 39 37 33 31 30 28 23 20 18 17 14 12 12 13 13 13 12 12 13 13 14 14 12 12 12 13 12 12 11 10 8 8 8 8 8 9 9 8 6 4 3
44 42 40 39 36 35 36 35 31 26 23 19 14 11 12 11 9 8 8 8 10 11 12 12 10 8 8 8 8 9 9 8 7 7 8 8 7 6 6 5 4 3 2
45 42 42 42 40 40 40 37 33 29 25 20 15 12 11 7 4 3 4 6 8 10 11 10 7 5 5 5 5 5 5 6 6 7 8 8 7 6 5 4 3 1 1
45 44 43 43 42 42 41 36 32 29 26 23 19 15 10 5 1 0 2 4 6 7 7 7 5 3 4 5 4 4 4 4 5 5 7 8 8 7 5 4 2 1 0
45 45 44 44 43 42 42 40 36 31 28 26 23 17 11 5 1 0 1 3 4 4 4 4 3 2 3 4 5 5 5 5 4 4 5 6 7 6 5 3 2 0 0
43 45 44 43 42 42 43 43 40 35 30 26 23 18 12 7 3 1 1 2 3 3 3 3 3 3 3 3 4 4 5 5 5 4 3 4 4 3 2 3 2 1 0
41 43 44 43 42 41 42 42 39 35 29 24 21 17 13 8 4 2 1 2 3 3 3 3 3 3 2 2 2 3 4 4 4 4 3 2 2 1 1 3 3 1 0
42 41 41 41 39 38 38 38 36 32 27 22 19 15 11 7 4 2 1 2 3 3 3 3 3 3 1 1 1 2 2 3 3 4 3 3 2 2 3 3 3 2 1
43 40 36 35 34 34 35 35 33 30 25 21 16 12 8 5 3 3 1 1 2 3 3 3 3 3 1 0 0 1 1 1 2 3 3 3 2 2 3 3 3 3 2
42 38 34 30 29 30 31 30 28 26 22 17 13 9 6 4 3 3 2 1 1 2 3 3 3 2 1 0 0 0 0 0 1 1 2 2 2 2 3 3 3 3 2
40 37 33 30 27 26 26 23 21 20 17 12 9 6 4 3 3 3 2 2 1 2 3 3 3 2 1 1 1 0 0 0 0 0 1 1 1 1 2 3 3 3 2
36 34 32 30 27 23 20 17 14 12 10 7 5 4 3 3 2 1 1 2 2 2 2 3 3 3 2 2 2 1 0 0 0 0 0 0 0 0 1 1 3 3 3
33 32 31 29 27 21 16 13 9 7 5 3 2 1 2 2 1 0 0 1 1 1 1 3 3 3 3 3 2 1 0 0 0 0 0 0 0 0 0 1 2 3 3
29 28 26 25 23 18 14 11 7 4 3 2 1 0 1 1 0 0 0 0 0 0 1 2 3 3 3 3 3 1 0 0 0 0 0 0 0 0 0 1 1 2 2
22 20 18 19 18 15 12 10 7 4 4 3 2 0 0 0 0 0 0 0 0 0 0 1 1 2 2 2 2 1 0 0 0 0 0 0 0 0 0 0 0 0 1
16 14 13 15 16 14 11 9 6 4 4 3 1 0 0 0 0 0 0 0 0 0 0 0 0 1 1 1 1 1 0 0 0 0 1 1 1 0 0 0 0 0 0
13 10 9 11 12 11 11 9 6 4 4 3 1 0 0 0 0 0 0 0 0 0 0 0 0 0 0 0 0 0 0 0 0 0 1 2 2 1 1 0 0 0 1
9 6 6 7 7 9 9 8 6 4 3 2 1 0 0 0 0 0 0 0 0 0 0 0 0 0 0 0 0 0 0 0 0 0 1 2 2 2 1 1 1 1 2
5 4 5 6 7 8 8 7 5 4 2 1 1 0 0 0 0 0 0 0 0 0 0 0 0 0 0 0 0 0 0 0 0 0 0 1 1 1 1 1 1 2 2
2 3 4 6 8 8 6 5 4 2 1 0 0 0 0 0 0 0 0 0 0 0 0 0 0 0 0 0 0 0 0 0 0 0 0 0 0 0 0 0 1 1 1
1 2 3 4 6 5 4 3 1 1 0 0 0 0 0 0 0 0 0 0 0 0 0 0 0 0 0 0 0 0 0 0 0 0 0 0 0 0 0 0 0 0 0
0 1 1 1 2 2 1 1 0 0 0 0 0 0 0 0 0 0 0 0 0 0 0 0 0 0 0 0 0 0 0 0 0 0 0 0 0 0 0 0 0 0 0
0 0 0 0 0 0 0 0 0 0 0 0 0 0 0 0 0 0 0 0 0 0 0 0 0 0 0 0 0 0 0 0 0 0 0 0 0 0 0 0 0 0 0
Wind_Speed
3 2 2 2 2 1 0 0 0 1 1 1 1 1 1 1 1 0 0 0 0 0 1 1 1 1 2 1 1 1 0 1 2 1 1 2 3 4 5 5 5 5 5
3 3 2 2 2 1 1 0 0 0 0 0 1 1 0 1 1 0 0 0 0 1 1 1 2 1 1 2 1 1 0 1 2 2 2 2 3 4 5 4 4 5 4
4 3 3 2 2 1 0 0 0 0 0 0 1 0 0 1 1 1 1 1 1 1 1 1 1 1 1 1 1 1 1 0 2 3 2 2 2 3 4 3 4 3 4
4 3 3 2 2 1 1 1 1 0 0 1 1 1 1 1 2 2 1 1 1 1 1 1 2 2 2 2 1 1 1 0 1 2 3 3 2 2 3 3 3 2 3
4 3 3 3 2 2 2 2 1 1 1 2 2 2 2 2 3 3 1 1 1 1 1 2 3 4 4 3 2 2 2 1 1 2 3 2 2 3 3 3 3 3 3
3 3 3 2 2 2 2 2 2 2 2 2 2 3 3 4 6 6 4 2 1 1 1 1 3 3 4 4 5 5 3 1 1 1 2 2 2 2 2 2 2 3 2
2 2 2 2 2 2 2 2 2 2 2 2 2 2 3 4 6 6 5 2 2 2 2 2 2 3 3 2 2 3 4 4 2 1 2 1 2 2 2 3 2 2 2
2 2 2 1 1 2 2 2 1 2 2 2 1 2 3 4 6 6 5 1 2 3 3 3 3 4 5 4 3 3 4 4 3 1 1 1 2 1 1 2 3 2 1
2 2 1 1 1 2 2 1 1 2 2 2 2 3 3 4 5 5 4 1 2 3 4 5 4 4 7 6 2 2 2 2 4 5 4 4 3 3 2 1 2 2 2
2 1 1 2 1 1 1 1 1 1 1 2 3 3 3 3 3 4 3 0 2 3 3 5 7 6 7 7 3 2 2 2 2 3 2 2 2 2 2 2 1 1 1
2 2 2 2 1 1 1 1 2 2 2 2 3 3 3 3 4 3 4 2 1 2 2 3 3 5 6 6 4 3 2 2 1 1 2 2 2 2 1 1 1 1 1
2 2 2 2 1 1 2 1 2 2 2 2 2 2 2 3 3 2 3 3 3 2 2 3 3 3 3 4 3 3 3 3 2 0 1 2 1 1 1 1 2 1 1
2 2 2 2 2 2 1 1 1 2 2 2 2 1 2 2 3 3 3 4 4 3 3 4 4 2 1 1 1 2 2 2 1 1 1 1 1 1 1 1 2 2 2
2 2 2 2 2 2 2 1 1 1 0 1 1 1 2 2 2 1 1 2 3 3 2 3 3 1 1 1 1 1 1 1 2 1 1 1 1 1 1 2 1 2 2
2 1 1 2 3 2 3 4 3 3 2 1 1 1 1 1 1 2 1 1 1 1 1 1 1 1 1 1 1 1 1 0 1 1 1 1 0 0 1 1 1 2 2
1 1 1 1 2 2 3 4 8 6 7 8 6 4 3 4 4 4 4 3 3 3 1 1 1 1 1 1 0 0 1 1 1 1 1 1 1 1 1 1 1 2 2
1 0 0 1 1 1 2 2 2 4 7 8 7 7 5 4 5 5 4 4 3 2 0 1 0 0 1 0 1 1 1 1 1 1 1 1 1 1 1 1 1 1 2
0 1 0 1 1 1 1 1 2 2 2 2 3 4 4 4 4 4 3 3 2 1 1 1 0 0 1 1 1 1 1 1 1 2 2 2 2 2 2 1 1 2 2
1 1 1 1 1 1 1 1 1 2 3 3 3 3 2 3 2 1 1 0 0 0 1 1 1 0 1 1 1 1 1 1 1 2 2 2 2 2 2 2 2 2 3
0 0 1 1 1 1 1 1 1 2 2 3 3 2 2 2 1 1 1 1 1 0 1 0 1 1 1 1 1 1 1 1 1 2 2 2 2 2 3 4 3 2 3
0 1 2 1 0 1 1 1 1 2 2 2 2 3 3 2 1 1 1 1 1 1 1 1 1 1 1 1 1 1 2 2 2 2 3 3 3 3 3 3 3 3 3
1 1 1 1 1 1 1 1 2 1 1 2 3 3 3 1 0 1 0 0 0 1 1 1 1 1 2 2 2 2 3 3 3 3 3 3 3 4 4 3 3 3 4
1 1 1 1 1 1 1 1 2 1 1 2 2 3 2 0 1 1 1 1 1 1 1 1 2 2 2 3 3 3 3 3 3 4 4 4 4 4 3 3 4 5 4
1 0 1 1 1 1 1 1 2 2 2 2 2 2 2 1 1 1 1 1 1 1 2 2 2 3 4 3 3 2 3 3 4 4 5 5 6 5 4 4 4 5 5
0 1 1 1 1 1 1 2 2 2 2 2 2 2 2 1 1 1 1 1 1 1 1 2 1 2 4 4 3 4 4 4 4 5 5 5 6 6 4 4 4 4 5
1 1 2 2 2 2 2 2 1 1 2 2 2 2 1 1 0 0 0 1 1 1 1 1 2 4 4 3 4 4 3 4 5 6 5 5 6 5 5 4 6 5 5
Wind_Direction
156 149 137 140 147 145 159 25 8 356 20 6 352 340 5 34 49 119 239 127 222 35 307 306 311 337 335 319 314 302 278 171 168 143 110 105 109 108 110 111 111 110 111
148 140 133 131 128 135 150 202 268 23 18 72 34 355 346 55 64 46 325 41 56 52 19 13 354 348 340 339 336 304 216 185 156 156 150 133 115 118 120 125 124 120 114
142 139 134 135 133 135 165 131 70 67 59 107 109 90 16 43 42 31 30 46 60 68 55 27 6 7 342 337 330 324 299 221 146 151 161 150 129 135 128 131 124 122 123
125 122 123 125 129 131 130 104 92 86 115 76 64 54 46 45 40 31 62 91 75 60 63 55 31 21 352 319 309 322 304 131 137 138 141 143 142 146 146 150 146 152 151
125 129 138 137 129 128 110 91 74 64 76 68 57 46 40 44 38 32 15 86 77 75 81 83 70 67 54 31 23 9 6 53 114 134 145 145 153 165 179 179 163 159 153
131 132 126 132 134 124 109 104 95 79 70 74 67 63 52 47 39 39 27 42 41 38 61 85 109 89 78 79 75 62 54 69 97 123 138 155 170 173 169 163 159 159 170
131 125 130 135 131 130 132 120 113 104 94 80 74 79 76 56 43 38 31 28 52 52 45 29 42 58 63 73 95 91 68 58 77 141 142 174 172 169 173 176 171 166 160
135 133 131 137 131 112 111 117 124 120 114 101 98 96 87 61 50 36 19 31 71 66 57 49 50 42 25 26 47 70 75 54 48 92 106 114 118 131 187 185 168 154 155
120 127 135 140 121 119 129 140 142 134 125 111 99 99 90 73 46 34 11 36 83 73 62 51 45 52 29 25 37 69 86 97 84 90 92 102 101 98 114 126 148 159 175
122 116 111 104 106 125 123 125 127 132 116 106 98 93 95 92 65 41 13 35 106 104 94 80 59 52 38 25 23 40 59 40 74 110 115 141 148 140 144 159 177 185 150
109 106 105 100 102 117 106 112 131 130 115 106 102 92 89 87 87 58 35 13 52 98 100 90 74 64 49 27 21 39 36 339 321 166 146 140 132 135 146 133 110 153 138
79 83 78 80 81 96 108 124 138 136 137 129 120 109 94 91 77 68 59 44 36 62 70 90 96 88 58 26 24 19 355 336 299 232 121 123 134 145 149 148 148 156 169
77 80 84 79 66 65 77 94 136 156 159 147 157 158 119 104 88 83 83 69 64 74 81 101 123 118 75 360 308 333 337 315 316 62 88 133 146 149 148 160 184 188 193
90 96 99 96 82 70 51 39 42 34 64 120 135 133 118 114 103 100 143 124 105 110 121 130 138 138 300 321 311 285 282 336 360 4 1 23 113 158 179 187 208 205 196
99 97 112 114 110 92 61 34 39 42 24 20 33 50 96 118 94 105 99 79 66 84 118 149 180 188 216 236 244 261 278 273 306 294 296 295 282 235 223 213 219 224 217
100 78 87 119 110 111 111 82 50 59 57 57 57 64 69 86 115 100 79 66 69 77 101 189 182 210 238 229 235 247 284 317 319 321 305 313 309 287 276 261 239 232 238
57 67 54 87 97 116 136 136 120 80 64 56 57 66 84 98 96 90 78 66 72 90 118 277 297 3 340 358 331 321 347 16 349 329 315 308 299 287 258 258 268 263 252
341 65 37 90 98 110 130 147 143 142 125 98 66 75 96 101 97 90 88 84 87 122 269 312 3 11 337 331 337 5 16 32 2 336 328 317 313 305 294 270 261 274 269
10 24 38 80 128 140 150 148 137 132 122 115 111 98 105 119 112 100 110 6 71 164 252 290 324 338 345 337 355 19 19 8 346 327 320 308 297 295 295 287 277 274 272
66 26 281 241 161 133 121 114 104 105 105 113 117 113 133 149 142 142 176 252 292 285 281 291 335 347 353 2 40 16 347 339 328 308 305 305 306 308 301 292 290 279 269
184 182 232 251 52 66 93 94 96 99 108 120 116 126 156 169 167 161 170 204 253 295 332 353 7 5 12 29 27 352 335 336 340 328 323 318 313 311 300 294 296 293 290
248 219 170 95 80 75 82 109 107 109 120 117 117 131 164 217 238 130 154 158 296 311 346 11 17 30 20 17 22 11 1 360 350 338 330 323 316 309 308 310 313 313 304
228 190 131 112 119 136 185 121 106 108 110 114 110 120 148 176 41 48 58 69 59 25 26 36 36 35 35 36 45 40 14 355 342 336 330 321 313 308 306 306 309 313 311
275 176 120 120 124 126 108 84 76 73 72 78 86 102 114 109 76 55 44 54 43 49 51 48 47 57 55 43 34 32 17 356 338 329 327 316 309 308 312 318 315 314 312
34 68 79 79 87 85 79 79 73 72 80 84 89 94 97 101 97 66 36 59 55 58 64 69 60 64 63 55 38 39 26 14 4 343 321 308 304 304 307 312 314 310 308
59 76 81 77 70 67 71 73 73 78 85 91 94 98 103 107 117 126 67 52 22 53 56 64 67 71 65 52 50 51 24 6 353 339 319 302 301 308 322 317 314 309 308